This demonstration page uses our WeatherBlox Daily Observations layout. Learn more.

Left ArrowRight Arrow

Hourly Observations for April 14, 2018

Temp ( °F °C ) Dew Point ( °F °C ) Humidity (%) Winds ( mph kmh ) Pressure ( in mb ) Visibility ( mi km ) Precip ( " mm )
12:03 am 00:03 Windy with Snow Likely 30 -1 30 -1 100 100 NNW 33 54 29.71 1006 3 5 0.00 0.00
12:53 am 00:53 Windy with Snow Likely 30 -1.1 28 -2.2 92 92 NNW 33 54 29.66 1004 4 6 0.00 0.03
1:53 am 01:53 Windy with Snow Likely 28 -2.2 27 -2.8 96 96 NNW 35 56 29.67 1005 4 6 0.00 0.03
2:53 am 02:53 Very Windy with Snow Likely 28 -2.2 26 -3.3 92 92 NNW 38 61 29.68 1005 4 6 0.00 0.03
3:53 am 03:53 Very Windy with Snow Likely 28 -2.2 26 -3.3 92 92 N 38 61 29.67 1005 4 6 0.00 0.03
4:53 am 04:53 Very Windy with Snow Likely 28 -2.2 26 -3.3 92 92 N 40 65 29.69 1006 4 6 0.00 0.03
5:53 am 05:53 Very Windy with Snow Likely 27 -2.8 25 -3.9 92 92 N 38 61 29.73 1007 3 4 0.00 0.03
6:03 am 06:03 Windy with Snow Likely 27 -2.8 25 -3.9 92 92 N 37 59 29.80 1009 1 2 0.00 0.03
6:18 am 06:18 Windy with Snow Likely 27 -2.8 25 -3.9 92 92 N 37 59 29.80 1009 2 3 0.00 0.03
6:31 am 06:31 Windy with Snow Likely 27 -2.8 25 -3.9 92 92 N 37 59 29.80 1009 4 6 0.00 0.03
6:53 am 06:53 Windy with Snow Likely 27 -2.8 25 -3.9 92 92 N 37 59 29.76 1008 4 6 0.00 0.03
7:25 am 07:25 Windy with Snow Likely 27 -2.8 24 -4.4 89 89 N 37 59 29.83 1010 2 3 0.00 0.03
7:37 am 07:37 Very Windy with Snow Likely 27 -2.8 25 -3.9 92 92 N 38 61 29.83 1010 2 3 0.00 0.03
7:53 am 07:53 Very Windy with Snow Likely 27 -2.8 25 -3.9 92 92 N 40 65 29.80 1009 3 4 0.00 0.03
8:26 am 08:26 Very Windy with Snow Likely 27 -3 25 -4 93 93 N 41 67 29.85 1011 3 5 0.00 0.00
8:53 am 08:53 Very Windy with Snow Likely 26 -3.3 24 -4.4 92 92 N 40 65 29.85 1011 4 6 0.00 0.03
9:53 am 09:53 Windy with Snow Likely 27 -2.8 24 -4.4 89 89 N 37 59 29.88 1012 2 3 0.00 0.03
10:03 am 10:03 Very Windy with Snow Likely 27 -2.8 24 -4.4 89 89 N 40 65 29.91 1013 2 2 0.00 0.03
10:26 am 10:26 Windy with Snow Likely 26 -3.3 24 -4.4 92 92 N 31 50 29.94 1014 1 1 0.00 0.03
10:53 am 10:53 Windy with Snow Likely 27 -2.8 24 -4.4 89 89 N 36 57 29.91 1013 1 1 0.00 0.03
11:13 am 11:13 Very Windy with Snow Likely 27 -2.8 24 -4.4 89 89 N 40 65 30.00 1016 2 3 0.00 0.03
11:24 am 11:24 Windy with Snow Likely 28 -2 25 -4 86 86 N 37 59 29.97 1015 3 5 0.00 0.00
11:53 am 11:53 Windy with Snow Likely 28 -2.2 25 -3.9 88 88 N 35 56 29.93 1014 5 8 0.00 0.03
12:53 pm 12:53 Windy with Snow Likely 28 -2.2 23 -5 81 81 N 36 57 29.96 1015 9 14 0.00 0.03
1:53 pm 13:53 Cloudy with Light Wintry Mix 28 -2.2 23 -5 81 81 N 31 50 29.99 1016 9 14 0.00 0.03
2:53 pm 14:53 Windy with Snow Likely 27 -2.8 22 -5.6 81 81 N 31 50 30.01 1016 7 11 0.00 0.03
3:22 pm 15:22 Windy with Snow Likely 27 -3 23 -5 86 86 N 35 56 30.09 1019 2 3 0.00 0.00
3:53 pm 15:53 Windy with Snow Likely 27 -2.8 23 -5 85 85 N 33 54 30.03 1017 3 4 0.00 0.03
3:56 pm 15:56 Windy with Snow Likely 28 -2 23 -5 80 80 N 30 48 30.09 1019 5 8 0.00 0.00
4:15 pm 16:15 Windy with Snow Likely 28 -2.2 24 -4.4 85 85 N 31 50 30.09 1019 2 3 0.00 0.03
4:18 pm 16:18 Windy with Snow Likely 28 -2 25 -4 86 86 N 30 48 30.09 1019 2 3 0.00 0.00
4:30 pm 16:30 Windy with Snow Likely 27 -3 25 -4 93 93 N 25 41 30.09 1019 1 1 0.00 0.00
4:38 pm 16:38 Windy with Snow Likely 27 -3 25 -4 93 93 N 31 50 30.09 1019 1 2 0.00 0.00
4:53 pm 16:53 Windy with Snow Likely 28 -2.2 24 -4.4 85 85 N 31 50 30.05 1018 2 2 0.00 0.03
5:09 pm 17:09 Windy with Snow Likely 27 -2.8 24 -4.4 89 89 N 30 48 30.12 1020 1 1 0.00 0.03
5:25 pm 17:25 Windy with Snow Likely 27 -2.8 23 -5 85 85 N 26 43 30.12 1020 1 2 0.00 0.03
5:37 pm 17:37 Windy with Snow Likely 27 -2.8 23 -5 85 85 N 28 44 30.12 1020 3 5 0.00 0.03
5:44 pm 17:44 Windy with Snow Likely 26 -3.3 23 -5 88 88 N 35 56 30.12 1020 2 3 0.00 0.03
5:53 pm 17:53 Windy with Snow Likely 27 -2.8 23 -5 85 85 N 30 48 30.08 1019 2 2 0.00 0.03
6:01 pm 18:01 Windy with Snow Likely 27 -2.8 23 -5 85 85 NNW 28 44 30.15 1021 3 5 0.00 0.03
6:53 pm 18:53 Windy with Snow Likely 26 -3.3 21 -6.1 81 81 N 33 54 30.11 1020 9 14 0.00 0.03
7:12 pm 19:12 Windy with Snow Likely 25 -4 21 -6 86 86 N 35 56 30.18 1022 2 3 0.00 0.00
7:31 pm 19:31 Windy with Snow Likely 25 -3.9 22 -5.6 88 88 N 30 48 30.18 1022 1 1 0.00 0.03
7:53 pm 19:53 Windy with Snow Likely 24 -4.4 22 -5.6 91 91 N 29 46 30.14 1021 1 1 0.00 0.03
8:11 pm 20:11 Windy with Snow Likely 24 -4.4 22 -5.6 91 91 N 30 48 30.21 1023 1 2 0.00 0.03
8:21 pm 20:21 Windy with Snow Likely 24 -4.4 22 -5.6 91 91 N 28 44 30.21 1023 3 5 0.00 0.03
8:53 pm 20:53 Windy with Snow Likely 24 -4.4 21 -6.1 88 88 N 31 50 30.15 1021 3 4 0.00 0.03
9:03 pm 21:03 Windy with Snow Likely 24 -4.4 21 -6.1 88 88 N 30 48 30.24 1024 4 6 0.00 0.03
9:53 pm 21:53 Mostly Cloudy 24 -4.4 20 -6.7 84 84 N 26 43 30.15 1021 10 16 0.00 0.03
10:53 pm 22:53 Cloudy 24 -4.4 19 -7.2 81 81 N 24 39 30.16 1022 10 16 0.00 0.00
11:53 pm 23:53 Cloudy 23 -5 19 -7.2 85 85 N 24 39 30.16 1021 10 16 0.00 0.00

Powered by AerisWeather